Perryton, TX

10:43 AM CST on January 23, 2018 (GMT -0600)
Perryton Ochiltree County

Weather History for KPYX - April, 2013

Change the Weather History Date:

Tuesday, April 9, 2013

  Actual Average Record
Temperature  
Mean Temperature 44 °F -  
Max Temperature 64 °F 67 °F 93 °F (2011)
Min Temperature 24 °F 36 °F 18 °F (1973)
Degree Days  
Heating Degree Days 21    
Moisture  
Dew Point 34 °F    
Average Humidity 77    
Maximum Humidity 89    
Minimum Humidity 66    
Precipitation  
Precipitation 0.00 in - - ()
Sea Level Pressure  
Sea Level Pressure 29.74 in    
Wind  
Wind Speed 27 mph (NNW)    
Max Wind Speed 38 mph    
Max Gust Speed 45 mph    
Visibility 9 miles    
Events      
Averages and records for this station are not official NWS values.
T = Trace of Precipitation, MM = Missing Value Source: NWS Daily Summary

Daily Weather History Graph

Daily Weather History Graph

Search for Another Location

Airport or City:

Trip Planner

Search our weather history database for the weather conditions in past years. The results will help you decide how hot, cold, wet, or windy it might be!

Date:

Astronomy

Apr. 09, 2013 Rise Set
Actual Time 7:17 AM CDT 8:12 PM CDT
Civil Twilight 6:51 AM CDT 8:38 PM CDT
Nautical Twilight 6:19 AM CDT 9:09 PM CDT
Astronomical Twilight 5:47 AM CDT 9:41 PM CDT
Moon 6:40 AM CDT (4/9) 7:49 PM CDT (4/9)
Length of Visible Light 13h 47m
Length of Day
12h 54m
Waning Crescent, 1% of the Moon is Illuminated
Apr 9
Waning Crescent
Apr 10
New
Apr 18
First Quarter
Apr 25
Full
May 2
Last Quarter

Hourly Weather History & Observations

Time (CDT) Temp. Windchill Dew Point Humidity Pressure Visibility Wind Dir Wind Speed Gust Speed Precip Events Conditions
12:15 AM 64.8 °F - 58.3 °F 79% 29.48 in 10.0 mi SSE 24.2 mph 32.2 mph N/A   Clear
12:35 AM 64.4 °F - 58.5 °F 81% 29.48 in 10.0 mi SSE 24.2 mph 32.2 mph N/A   Clear
12:55 AM 63.9 °F - 58.5 °F 83% 29.49 in 10.0 mi SSE 24.2 mph 31.1 mph N/A   Clear
1:15 AM 63.7 °F - 59.0 °F 85% 29.49 in 10.0 mi SSE 21.9 mph 32.2 mph N/A   Scattered Clouds
1:35 AM 63.9 °F - 59.5 °F 86% 29.49 in 10.0 mi SSE 23.0 mph 35.7 mph N/A   Scattered Clouds
1:55 AM 64.0 °F - 60.1 °F 87% 29.49 in 10.0 mi SSE 25.3 mph 32.2 mph N/A   Scattered Clouds
2:15 AM 64.2 °F - 60.3 °F 87% 29.49 in 10.0 mi SSE 25.3 mph 33.4 mph N/A   Scattered Clouds
2:35 AM 64.0 °F - 60.3 °F 87% 29.49 in 10.0 mi SSE 24.2 mph 29.9 mph N/A   Scattered Clouds
2:55 AM 64.0 °F - 60.3 °F 87% 29.49 in 10.0 mi SSE 21.9 mph 28.8 mph N/A   Scattered Clouds
3:15 AM 63.9 °F - 60.1 °F 87% 29.48 in 10.0 mi SSE 20.7 mph 27.6 mph N/A   Clear
3:35 AM 63.5 °F - 59.9 °F 88% 29.48 in 7.0 mi SSE 21.9 mph 26.5 mph N/A   Clear
3:55 AM 63.5 °F - 59.9 °F 88% 29.48 in 10.0 mi SSE 17.3 mph - N/A   Clear
4:15 AM 63.5 °F - 59.5 °F 87% 29.49 in 10.0 mi South 17.3 mph - N/A   Clear
4:35 AM 64.0 °F - 59.4 °F 85% 29.48 in 10.0 mi South 20.7 mph - N/A   Clear
4:55 AM 63.9 °F - 59.7 °F 86% 29.48 in 7.0 mi SSE 21.9 mph 28.8 mph N/A   Scattered Clouds
5:15 AM 63.7 °F - 59.9 °F 87% 29.48 in 7.0 mi South 23.0 mph 29.9 mph N/A   Clear
5:35 AM 63.3 °F - 59.7 °F 88% 29.48 in 7.0 mi South 20.7 mph 27.6 mph N/A   Clear
5:55 AM 63.1 °F - 59.7 °F 89% 29.48 in 7.0 mi South 19.6 mph 25.3 mph N/A   Clear
6:15 AM 63.1 °F - 59.9 °F 89% 29.48 in 7.0 mi South 23.0 mph 28.8 mph N/A   Clear
6:35 AM 63.3 °F - 59.9 °F 89% 29.54 in 7.0 mi West 13.8 mph 25.3 mph N/A   Scattered Clouds
6:55 AM 51.6 °F - 41.4 °F 68% 29.58 in 5.0 mi NW 28.8 mph 41.4 mph N/A   Mostly Cloudy
7:15 AM 47.3 °F - 38.5 °F 71% 29.61 in 7.0 mi NNW 23.0 mph 31.1 mph N/A   Overcast
7:35 AM 44.6 °F 35.7 °F 36.5 °F 73% 29.60 in 7.0 mi NW 24.2 mph - N/A   Mostly Cloudy
7:55 AM 43.9 °F 35.0 °F 35.8 °F 73% 29.62 in 10.0 mi NW 23.0 mph 29.9 mph N/A   Scattered Clouds
8:15 AM 42.8 °F 33.3 °F 35.1 °F 74% 29.63 in 10.0 mi NNW 24.2 mph 31.1 mph N/A   Clear
8:35 AM 43.0 °F 33.5 °F 35.6 °F 75% 29.68 in 10.0 mi NNW 24.2 mph 32.2 mph N/A   Scattered Clouds
8:55 AM 43.7 °F 34.1 °F 36.3 °F 75% 29.68 in 10.0 mi NNW 26.5 mph 35.7 mph N/A   Overcast
9:15 AM 42.8 °F 31.9 °F 34.9 °F 74% 29.69 in 10.0 mi NNW 32.2 mph 39.1 mph N/A   Overcast
9:35 AM 41.0 °F 29.1 °F 33.8 °F 76% 29.69 in 10.0 mi NNW 34.5 mph 41.4 mph N/A   Overcast
9:55 AM 39.7 °F 27.4 °F 32.9 °F 77% 29.71 in 10.0 mi NNW 34.5 mph 40.3 mph N/A   Overcast
10:15 AM 38.1 °F 25.5 °F 31.5 °F 77% 29.73 in 10.0 mi NNW 32.2 mph 42.6 mph N/A   Overcast
10:35 AM 36.5 °F 23.1 °F 30.2 °F 78% 29.74 in 10.0 mi NNW 33.4 mph 44.9 mph N/A   Overcast
10:55 AM 35.1 °F 21.2 °F 28.2 °F 76% 29.76 in 10.0 mi NNW 33.4 mph 39.1 mph N/A   Overcast
11:15 AM 33.8 °F 19.6 °F 27.3 °F 77% 29.77 in 10.0 mi NNW 32.2 mph 42.6 mph N/A   Overcast
11:35 AM 32.4 °F 16.6 °F 25.7 °F 76% 29.78 in 10.0 mi NNW 38.0 mph - N/A   Overcast
11:55 AM 31.8 °F 16.7 °F 25.5 °F 78% 29.81 in 10.0 mi NNW 33.4 mph 40.3 mph N/A   Overcast
12:15 PM 30.7 °F 14.6 °F 24.8 °F 79% 29.82 in 7.0 mi NNW 36.8 mph 43.7 mph N/A   Overcast
12:35 PM 30.2 °F 14.5 °F 24.3 °F 79% 29.82 in 10.0 mi NNW 33.4 mph 44.9 mph N/A   Overcast
12:55 PM 30.0 °F 14.5 °F 24.6 °F 80% 29.84 in 7.0 mi NNW 32.2 mph 40.3 mph N/A   Overcast
1:15 PM 29.1 °F 12.4 °F 23.9 °F 81% 29.84 in 7.0 mi NNW 36.8 mph 44.9 mph N/A   Overcast
1:35 PM 29.3 °F 13.3 °F 23.7 °F 80% 29.83 in 7.0 mi North 33.4 mph 44.9 mph N/A   Overcast
1:55 PM 29.3 °F 14.2 °F 23.9 °F 80% 29.85 in 7.0 mi NNW 28.8 mph 39.1 mph N/A   Overcast
2:15 PM 29.3 °F 12.6 °F 23.0 °F 77% 29.85 in 10.0 mi NNW 36.8 mph 42.6 mph N/A   Overcast
2:35 PM 29.5 °F 14.0 °F 22.6 °F 76% 29.84 in 10.0 mi NNW 31.1 mph 40.3 mph N/A   Overcast
2:55 PM 28.9 °F 13.0 °F 21.9 °F 75% 29.85 in 10.0 mi North 32.2 mph 42.6 mph N/A   Overcast
3:15 PM 29.3 °F 13.3 °F 21.9 °F 74% 29.85 in 10.0 mi NNW 33.4 mph 40.3 mph N/A   Overcast
3:35 PM 29.3 °F 13.0 °F 21.4 °F 72% 29.84 in 10.0 mi NNW 34.5 mph 41.4 mph N/A   Overcast
3:55 PM 29.5 °F 13.5 °F 21.6 °F 72% 29.86 in 10.0 mi NNW 33.4 mph 39.1 mph N/A   Overcast
4:15 PM 29.3 °F 12.8 °F 21.2 °F 72% 29.87 in 10.0 mi NNW 35.7 mph 41.4 mph N/A   Overcast
4:35 PM 28.8 °F 12.3 °F 21.0 °F 73% 29.89 in 10.0 mi NNW 34.5 mph 41.4 mph N/A   Overcast
4:55 PM 28.8 °F 12.3 °F 21.2 °F 73% 29.88 in 10.0 mi NNW 34.5 mph 40.3 mph N/A   Overcast
5:15 PM 29.1 °F 13.0 °F 21.4 °F 73% 29.90 in 10.0 mi NNW 33.4 mph 40.3 mph N/A   Overcast
5:35 PM 28.6 °F 12.3 °F 21.4 °F 74% 29.91 in 10.0 mi NNW 33.4 mph 40.3 mph N/A   Overcast
5:55 PM 28.8 °F 12.7 °F 21.7 °F 75% 29.91 in 10.0 mi NNW 32.2 mph 36.8 mph N/A   Overcast
6:15 PM 29.1 °F 13.5 °F 21.6 °F 73% 29.90 in 10.0 mi NNW 31.1 mph 38.0 mph N/A   Overcast
6:35 PM 29.5 °F 13.1 °F 21.0 °F 71% 29.91 in 10.0 mi NNW 35.7 mph 41.4 mph N/A   Overcast
6:55 PM 29.5 °F 14.2 °F 19.9 °F 68% 29.94 in 10.0 mi NNW 29.9 mph 39.1 mph N/A   Mostly Cloudy
7:15 PM 28.9 °F 14.0 °F 19.2 °F 67% 29.92 in 10.0 mi NNW 27.6 mph 39.1 mph N/A   Scattered Clouds
7:35 PM 28.4 °F 11.8 °F 18.3 °F 66% 29.91 in 7.0 mi NNW 34.5 mph 42.6 mph N/A   Mostly Cloudy
7:55 PM 27.7 °F 11.0 °F 19.2 °F 71% 29.95 in 7.0 mi NNW 33.4 mph 43.7 mph N/A   Overcast
8:15 PM 27.3 °F 11.3 °F 18.5 °F 69% 29.90 in 10.0 mi North 29.9 mph 43.7 mph N/A   Mostly Cloudy
8:35 PM 27.3 °F 11.0 °F 18.5 °F 69% 29.96 in 10.0 mi North 31.1 mph 42.6 mph N/A   Mostly Cloudy
8:55 PM 26.6 °F 9.1 °F 18.0 °F 70% 29.93 in 10.0 mi North 35.7 mph 44.9 mph N/A   Mostly Cloudy
9:15 PM 26.4 °F 10.9 °F 18.0 °F 70% 29.96 in 10.0 mi NNW 26.5 mph 39.1 mph N/A   Overcast
9:35 PM 26.4 °F 10.3 °F 17.8 °F 70% 29.99 in 10.0 mi NNW 28.8 mph 39.1 mph N/A   Mostly Cloudy
9:55 PM 26.1 °F 9.3 °F 17.6 °F 70% 29.97 in 7.0 mi North 31.1 mph 38.0 mph N/A   Overcast
10:15 PM 25.5 °F 9.7 °F 17.6 °F 72% 30.02 in 10.0 mi North 26.5 mph 40.3 mph N/A   Mostly Cloudy
10:35 PM 25.3 °F 8.9 °F 17.6 °F 72% 30.03 in 10.0 mi North 28.8 mph 34.5 mph N/A   Overcast
10:55 PM 25.0 °F 7.8 °F 16.9 °F 71% 30.02 in 10.0 mi NNW 31.1 mph 39.1 mph N/A   Overcast
11:15 PM 24.6 °F 6.4 °F 16.2 °F 70% 30.00 in 7.0 mi NNW 35.7 mph 43.7 mph N/A   Overcast
11:35 PM 24.4 °F 5.9 °F 16.2 °F 71% 29.97 in 10.0 mi NNW 36.8 mph 42.6 mph N/A   Overcast
11:55 PM 24.4 °F 6.8 °F 15.8 °F 70% 30.03 in 10.0 mi NNW 32.2 mph 40.3 mph N/A   Overcast